SCP
-0 -0 -0 0 0 0 0 0 0 0 0 0 0 0 0 0 0 0 0 -0 -0 -0 -0 -1 -0 -1 -0 -0 -0 -0 -0 -0 -0 0 0 0 0 0 0 0 0 0 0 0 0 0 0 0 0
-0 -0 0 0 0 0 0 0 0 0 0 0 0 0 0 0 0 0 0 -0 -0 -0 -0 -0 -0 -0 -0 -0 -0 -0 -0 -0 -0 -0 -0 -0 0 0 0 0 0 0 0 0 0 0 0 0 0
-0 -0 0 -0 0 -0 -0 0 0 -0 0 0 0 0 0 0 0 0 0 -0 -0 -0 -0 -0 -0 -0 -0 -0 -0 -0 -0 -0 -0 -0 -0 -0 -0 0 0 0 0 0 0 0 0 0 0 0 0
0 0 0 -0 -0 0 0 -0 -0 0 0 0 0 -0 0 0 0 0 0 -0 -0 -0 -0 -0 -0 -0 -0 -0 -0 -0 -0 -0 -0 -0 -0 0 0 0 0 0 0 0 0 0 0 0 0 0 0
0 0 0 0 0 0 0 -0 0 0 0 0 0 0 0 0 0 0 0 -0 -0 -0 -0 -0 -0 -0 -0 0 -0 -0 0 -0 -0 0 0 0 0 0 0 0 0 0 0 0 0 0 0 0 0
0 0 0 0 0 0 0 0 0 0 0 0 0 0 0 0 0 0 0 -0 -0 -0 -0 -0 -0 -0 0 0 0 0 0 0 0 0 0 0 0 0 0 0 0 0 0 0 0 0 0 0 0
0 0 0 0 0 0 0 0 0 0 0 0 0 0 0 0 0 0 0 0 0 -0 -0 -0 -0 -0 0 0 0 0 0 0 0 0 0 0 0 0 0 0 0 0 0 0 0 0 0 0 0
0 0 0 0 0 0 0 0 0 0 0 0 0 0 0 0 0 0 0 0 0 0 0 -0 -0 -0 -0 -0 0 0 0 0 0 0 0 0 0 0 0 0 0 0 0 0 0 0 0 0 0
0 0 0 0 0 0 0 0 0 0 0 0 0 0 0 0 0 0 0 0 0 0 0 0 0 0 -0 0 0 0 0 0 0 0 0 0 0 0 0 0 0 0 0 0 0 0 0 0 0
0 0 0 0 0 0 0 0 0 0 0 0 0 0 0 0 0 0 0 0 0 0 0 0 0 0 0 0 0 0 0 0 0 0 0 0 0 0 0 0 0 0 0 0 0 0 0 0 0
0 0 0 0 0 0 0 0 0 0 0 0 0 0 0 0 0 0 0 0 0 0 0 0 0 0 0 0 0 0 0 0 0 0 0 0 0 0 0 0 0 0 0 0 0 0 0 0 0
0 0 0 0 0 0 0 0 0 0 -0 0 0 0 0 0 0 0 0 0 0 0 0 0 0 0 0 0 0 0 0 0 0 0 0 0 0 0 0 0 0 0 0 0 0 0 0 0 0
0 0 0 0 0 0 0 0 0 0 0 0 0 0 0 0 0 0 0 0 0 0 0 0 0 0 0 0 0 0 0 0 0 0 0 0 0 0 0 0 0 0 0 0 0 0 0 0 0
0 0 0 0 0 0 0 0 0 0 0 0 0 0 0 0 0 0 0 0 0 0 0 0 0 0 0 0 0 0 0 0 0 0 0 0 0 0 0 0 0 0 0 0 0 0 0 0 0
0 0 0 0 0 0 0 0 0 0 0 0 0 0 0 0 0 0 0 0 0 0 0 0 0 0 0 0 0 0 0 0 0 0 0 0 0 0 0 0 0 0 0 0 0 0 0 0 0
0 0 0 0 0 0 0 0 0 0 0 0 0 0 0 0 0 0 0 0 0 0 0 0 0 0 0 0 0 0 0 0 0 0 0 0 0 0 0 0 0 0 0 0 0 0 0 0 0
0 0 0 0 0 0 0 0 0 0 0 0 0 0 0 0 0 0 0 0 0 0 0 0 0 0 0 0 0 0 0 0 0 0 0 0 0 0 0 0 0 0 0 0 0 0 0 0 0
0 0 0 0 0 0 0 0 0 0 0 0 0 0 0 0 0 0 0 0 0 0 0 0 0 0 0 0 0 0 0 0 0 0 0 0 0 0 0 0 0 0 0 0 0 0 0 0 0
0 0 0 0 0 0 0 0 0 0 0 0 0 0 0 0 0 0 0 0 0 0 0 0 0 0 0 0 0 0 0 0 0 0 0 0 0 0 0 0 0 0 0 0 0 0 0 0 0
0 0 0 0 0 0 0 0 0 -0 -0 0 0 0 0 0 0 0 0 0 0 0 0 0 0 0 0 0 0 0 0 0 0 0 0 0 0 0 0 0 0 0 0 0 0 0 0 0 0
0 0 0 0 0 0 0 -0 0 0 -0 0 0 0 0 0 0 0 0 0 -0 0 0 0 0 0 0 0 0 0 0 0 0 0 0 0 0 0 0 0 0 0 0 0 0 0 0 0 0
0 0 0 0 0 0 0 -0 0 -0 -0 0 0 0 0 0 0 0 0 0 0 0 0 0 0 0 0 0 0 0 0 0 0 0 0 0 0 0 0 0 0 0 0 0 0 0 0 0 0
0 0 0 0 0 0 0 -0 0 0 0 0 0 0 0 0 0 -0 -0 0 0 0 0 0 -0 0 0 0 0 0 0 0 0 0 0 0 0 0 0 0 0 0 0 0 0 0 0 0 0
0 0 0 0 0 0 0 0 0 0 0 0 0 0 0 0 0 0 0 0 0 0 0 0 0 -0 0 0 0 0 0 0 0 0 0 0 0 0 0 0 0 0 0 0 0 0 0 0 0
0 0 0 0 0 0 0 0 0 -0 0 0 0 -0 -0 0 0 0 0 0 0 0 0 -0 0 0 0 0 0 0 0 0 0 0 0 0 0 0 0 0 0 0 0 0 0 0 0 0 0
0 0 0 0 0 0 0 0 0 0 0 0 0 0 0 0 0 -0 -0 -0 -0 -0 -0 -0 -0 0 0 0 0 0 0 0 0 0 0 0 0 0 0 0 0 0 0 0 0 0 0 0 0
0 0 0 0 0 0 0 0 0 0 0 0 0 0 0 -0 -0 0 0 -0 -0 -0 -0 -0 -0 -0 0 0 0 0 -0 -0 0 0 0 0 0 0 0 0 0 0 0 0 0 0 0 0 0
0 0 0 0 0 0 0 0 0 0 0 0 0 0 0 0 0 0 0 -0 -0 0 0 0 0 0 0 0 0 -0 0 0 -0 -0 -0 0 0 0 0 0 0 0 0 0 0 0 0 0 0
0 0 0 0 0 0 0 0 0 0 0 0 0 0 0 0 0 0 0 0 0 0 0 0 0 0 0 0 0 0 0 0 0 -0 -0 -0 0 0 0 0 0 0 0 0 0 0 0 0 0
0 0 0 0 0 0 0 0 0 0 0 0 0 0 0 0 0 0 0 0 0 0 0 0 0 0 0 0 0 0 0 0 -0 0 0 0 -0 0 0 0 0 0 0 0 0 0 0 0 0
Wind_Speed_500mb
9 8 7 6 8 6 6 3 5 7 4 1 5 6 8 12 8 11 4 7 17 43 49 47 45 42 40 39 36 33 29 26 23 21 20 19 18 17 16 16 16 16 18 9 7 6 6 6 5
8 6 5 2 7 7 4 1 6 3 3 4 9 9 11 14 18 20 16 12 20 38 48 51 48 45 42 39 36 35 34 30 28 27 25 22 22 22 22 22 21 22 22 10 10 10 10 9 9
4 1 5 4 4 5 5 3 4 5 7 8 6 9 8 7 10 7 10 12 24 37 49 51 51 49 46 43 39 38 35 32 30 28 25 25 26 26 19 17 23 26 23 17 15 16 16 17 16
3 2 5 7 14 17 11 11 15 19 3 9 9 14 11 19 10 12 8 14 25 33 44 44 47 48 47 46 41 40 37 33 32 30 33 34 35 30 20 20 23 25 23 21 19 19 17 16 16
6 2 5 6 11 10 14 17 14 9 5 6 6 6 10 20 18 24 19 13 25 29 38 42 45 46 47 47 46 43 40 37 36 38 37 29 28 25 20 21 21 22 21 20 19 17 14 10 8
4 2 6 8 7 11 15 12 9 10 6 4 7 12 11 14 10 13 18 19 24 31 36 39 42 45 45 46 44 46 43 42 45 45 32 30 26 22 20 21 21 20 20 18 13 10 8 6 6
4 5 6 9 11 9 3 3 6 6 5 9 6 9 13 19 12 15 15 21 26 33 38 40 43 46 46 47 46 43 45 48 51 48 37 30 26 24 23 24 21 19 17 14 13 11 10 9 7
6 4 4 8 6 9 4 5 5 11 10 10 11 9 12 16 27 27 24 25 29 36 39 43 46 49 52 52 52 51 50 50 52 49 40 31 28 28 28 26 23 21 20 19 16 14 11 9 10
8 8 10 8 9 4 7 9 8 11 22 17 23 38 36 46 44 39 34 33 36 40 44 46 49 52 55 56 56 55 55 54 54 54 46 37 33 32 31 30 27 25 24 22 20 17 13 11 10
11 8 10 9 12 11 13 13 16 13 32 41 36 44 38 39 43 46 44 43 45 46 47 50 51 53 57 60 58 56 58 59 59 59 51 45 40 38 35 33 31 29 27 24 20 17 14 12 10
10 14 13 17 27 19 20 20 12 20 29 35 37 36 30 44 49 52 53 51 51 46 54 52 55 56 60 62 62 65 65 64 65 60 55 50 46 45 44 41 38 35 32 29 25 22 18 14 12
11 27 25 14 15 10 16 16 22 35 69 59 54 48 49 50 49 48 49 49 46 48 48 56 58 62 63 65 66 70 71 70 69 64 60 58 55 53 52 48 45 41 39 35 31 27 23 19 14
18 22 25 32 27 28 32 52 39 55 65 64 54 51 49 48 50 46 50 46 46 51 49 53 58 62 66 70 70 74 76 76 74 72 68 65 63 60 58 54 50 48 44 40 36 32 26 20 16
6 17 30 27 36 35 25 57 12 35 30 42 42 54 47 46 36 46 48 43 44 44 44 48 55 64 71 75 77 79 79 80 79 78 74 71 70 67 64 61 57 55 49 45 41 35 30 24 18
10 22 32 36 28 18 21 25 30 53 25 42 51 43 41 50 61 76 69 58 48 54 53 56 56 62 72 77 80 84 85 86 86 83 80 78 78 74 71 69 65 61 56 51 47 42 36 30 24
12 8 20 15 8 7 18 37 40 36 21 34 51 63 66 72 65 52 57 61 69 75 75 70 71 70 73 79 83 90 93 92 92 91 88 86 85 81 78 76 71 67 62 58 53 48 42 37 30
13 24 26 26 12 6 22 23 31 31 44 73 70 70 68 62 63 44 40 41 36 42 47 53 60 69 75 80 87 94 98 100 99 99 97 93 91 89 86 82 77 73 69 66 61 55 49 42 34
30 23 22 22 21 17 35 41 39 65 63 72 75 75 54 49 42 38 36 28 27 28 34 41 48 56 63 74 86 97 104 108 107 108 105 99 97 95 91 87 83 80 79 75 69 62 56 49 44
26 34 41 43 36 32 43 43 39 55 64 69 70 53 40 30 30 28 34 31 29 23 26 31 38 45 56 66 76 88 102 104 110 112 110 106 104 101 98 93 89 89 88 82 75 70 64 58 52
31 37 41 42 31 9 35 44 52 43 52 56 48 40 31 18 21 35 46 48 35 28 24 31 37 40 46 55 64 72 82 92 97 104 112 112 111 108 103 99 97 95 92 88 82 79 74 70 61
33 29 40 42 34 28 26 26 6 14 34 34 29 19 6 17 30 39 43 54 63 61 47 37 34 39 41 46 53 60 72 77 81 88 99 105 108 111 105 103 102 99 97 95 91 88 84 78 70
34 25 31 28 15 18 15 22 21 26 28 15 11 9 29 32 43 46 52 56 56 59 62 54 39 25 26 33 44 51 55 63 70 79 82 91 100 107 106 107 107 104 101 100 97 92 87 82 76
13 6 4 4 15 20 8 14 8 5 10 9 16 26 33 41 41 40 45 48 55 59 63 59 54 38 24 18 22 37 45 48 48 60 67 67 75 91 107 110 111 110 107 104 102 97 94 89 84
2 10 7 2 8 16 16 13 7 5 1 7 24 32 34 33 35 43 49 55 63 60 54 52 51 49 43 32 24 25 31 38 49 57 65 65 63 64 87 108 113 113 110 108 104 99 96 93 92
10 10 16 14 12 21 10 10 13 23 10 17 25 30 31 36 47 54 62 61 58 58 57 56 52 48 41 36 29 24 24 28 38 45 55 57 62 63 64 87 110 114 111 109 106 103 100 98 98
19 17 15 13 23 34 13 26 20 18 28 35 40 37 40 38 39 45 51 54 56 55 55 52 52 53 51 43 35 32 30 29 31 34 41 48 56 59 60 65 86 108 111 112 109 105 103 102 101
12 16 11 14 19 21 31 48 22 14 16 24 28 30 30 30 37 41 41 45 48 52 53 54 51 51 52 52 48 46 39 34 33 34 35 39 47 53 58 60 63 80 104 111 111 110 108 107 104
12 7 17 10 14 33 27 36 27 19 11 10 17 24 27 31 33 33 35 37 42 42 44 46 46 48 49 50 52 52 52 48 41 37 37 37 39 41 50 58 61 66 76 98 112 114 110 111 111
14 13 16 11 11 10 11 23 8 16 14 12 15 19 24 29 30 29 29 33 39 42 42 43 49 54 53 51 50 48 49 50 48 49 42 41 42 42 44 51 58 62 72 81 97 114 113 115 114
9 29 30 22 16 19 24 31 15 21 15 15 13 11 12 18 22 24 25 29 36 41 45 48 47 48 52 53 49 48 45 47 52 54 51 48 42 44 51 52 57 64 68 77 87 100 117 120 120
Wind_Direction_500mb
249 269 309 333 254 252 252 200 306 264 252 261 140 239 306 302 282 323 330 222 189 196 198 200 204 202 199 196 192 194 201 204 209 217 228 240 246 246 243 239 239 243 253 264 230 244 256 253 261
267 291 331 278 262 270 81 113 237 311 304 236 231 245 259 285 254 272 284 233 194 191 200 205 208 209 209 206 205 202 203 208 216 221 225 234 244 245 243 236 232 238 251 257 248 254 253 249 247
259 289 293 312 275 310 351 190 25 348 280 236 257 249 281 248 257 244 279 224 196 191 201 207 211 214 216 217 213 210 208 210 215 221 221 226 233 243 243 229 227 238 249 254 255 259 264 270 272
143 72 64 268 281 280 268 304 301 305 241 224 267 263 258 253 267 245 283 248 209 200 201 209 212 215 219 221 215 211 211 212 214 227 228 234 235 238 237 240 237 245 257 263 266 264 265 268 264
153 152 229 261 273 273 263 289 289 289 290 217 222 297 266 288 275 271 264 253 222 215 209 209 211 215 217 217 218 216 212 207 217 222 229 241 237 240 236 242 244 247 254 262 271 279 276 268 259
151 216 237 269 274 270 283 267 272 259 259 244 234 267 271 301 307 291 260 246 226 221 216 214 216 217 215 214 213 213 208 208 219 226 234 240 239 239 235 232 234 240 246 249 245 238 239 250 267
220 224 286 283 285 285 240 200 231 281 275 265 250 272 277 285 289 312 279 247 231 222 219 220 220 219 218 217 216 212 211 214 223 233 239 235 232 232 229 226 225 228 230 228 224 222 224 229 238
153 236 216 229 279 283 202 218 220 259 301 256 220 245 284 276 294 293 283 258 239 231 228 225 223 220 220 218 220 219 219 221 229 241 245 239 228 226 225 222 218 215 212 212 214 221 233 251 264
164 234 240 244 212 242 196 243 198 242 272 256 243 255 274 287 284 279 273 259 247 242 236 231 227 225 224 224 222 222 224 226 230 238 245 241 229 227 221 217 216 212 209 209 211 215 224 238 250
216 236 245 231 222 253 271 247 280 265 271 264 266 273 287 286 282 273 268 265 257 248 245 240 234 230 228 229 227 224 227 226 229 235 238 231 228 227 222 221 216 213 211 211 214 219 227 239 250
191 242 247 240 243 256 275 273 250 262 270 268 276 294 286 286 284 276 274 270 262 258 248 245 241 237 233 231 228 227 228 228 231 234 235 229 226 224 220 220 217 216 212 214 216 220 225 229 237
234 244 242 260 240 234 265 280 262 250 266 277 284 285 283 283 285 280 278 274 261 255 252 245 241 240 239 236 231 232 231 231 233 234 232 228 226 224 223 222 220 217 213 215 217 218 218 220 227
235 255 249 250 254 253 269 265 265 267 272 284 283 287 290 288 290 287 281 270 262 254 249 245 244 242 241 240 238 235 234 234 235 234 232 229 227 228 226 224 222 219 217 218 219 219 220 224 230
273 262 272 274 260 251 243 268 275 263 285 290 291 292 288 288 297 303 293 276 273 271 265 252 247 244 242 241 238 239 238 237 235 235 234 231 230 229 227 226 224 223 221 221 221 221 223 227 236
313 298 293 265 257 238 220 265 234 274 271 283 290 292 290 287 291 290 291 286 280 279 273 267 259 249 244 243 241 240 240 238 238 237 234 232 231 230 228 227 225 225 223 223 223 223 223 226 232
269 253 280 297 169 214 193 271 284 294 294 290 291 288 284 285 288 291 290 284 278 278 276 271 263 255 249 246 244 242 240 239 239 238 236 233 231 230 229 227 226 226 224 224 224 224 224 224 228
226 269 262 289 244 168 208 276 286 292 296 292 289 285 287 294 295 303 289 290 285 274 270 266 259 252 250 248 245 243 242 241 239 238 237 236 233 230 229 229 228 227 225 225 224 224 225 225 227
273 265 257 264 283 264 282 267 274 282 285 279 286 285 295 293 310 319 325 310 292 271 266 261 258 255 252 249 246 243 241 240 239 239 238 237 235 232 230 229 228 228 226 225 224 224 223 221 223
284 271 275 277 285 291 287 295 294 286 280 280 282 293 292 310 332 3 8 350 328 307 286 281 272 268 260 253 244 240 242 241 239 240 240 238 236 234 231 230 230 228 228 228 226 224 221 220 221
261 271 276 279 278 283 286 295 292 283 275 272 284 293 301 335 47 33 34 33 20 359 321 290 278 271 265 259 257 250 245 244 245 242 241 239 238 236 233 231 230 230 228 226 225 225 222 219 219
256 263 269 280 306 280 296 279 258 295 277 300 286 276 348 60 34 22 23 31 33 29 14 347 305 286 276 265 256 250 243 244 246 246 245 242 239 239 236 234 234 232 230 229 229 227 225 224 219
274 280 270 285 302 290 6 295 301 274 284 324 36 88 97 53 33 32 35 34 32 32 28 16 352 312 298 290 269 256 258 254 254 256 256 255 248 243 239 237 237 234 232 231 230 229 227 225 224
272 8 298 284 285 304 268 266 307 241 250 174 22 75 57 34 34 35 38 33 35 33 28 28 18 2 353 327 290 281 275 265 261 261 261 264 262 251 242 239 239 237 234 232 232 230 227 228 227
319 277 246 218 285 267 309 233 359 266 212 94 91 77 52 40 35 37 41 34 31 30 30 31 37 29 22 18 355 323 298 283 274 277 273 271 268 262 249 241 240 240 239 236 235 233 232 231 229
184 264 297 281 237 266 65 296 280 282 5 25 82 69 49 44 35 31 28 28 28 26 30 30 28 28 26 23 15 360 339 312 296 290 284 281 276 270 263 248 240 240 241 241 239 235 233 231 230
198 206 220 259 270 285 301 265 255 235 87 66 57 45 37 36 40 35 30 26 24 23 23 26 28 26 24 21 15 2 350 328 309 300 293 288 286 282 274 264 249 242 241 241 240 240 239 235 232
163 218 277 266 261 277 270 270 255 238 70 63 60 59 51 38 36 34 31 28 21 16 17 16 15 16 17 17 18 15 1 342 325 313 302 296 291 285 281 274 264 253 246 245 244 241 239 237 236
229 309 255 227 257 248 248 258 252 166 126 87 65 40 29 30 27 23 18 13 11 10 8 7 9 10 10 5 7 8 7 2 346 327 313 299 291 286 284 277 269 262 254 249 247 244 241 239 237
234 233 228 267 258 261 252 242 292 150 127 104 48 33 20 17 14 9 8 3 357 355 359 1 356 358 357 358 360 355 352 353 356 357 341 319 302 290 279 275 273 268 265 257 249 248 244 241 240
281 264 257 248 243 227 249 255 96 114 129 119 103 57 27 24 10 3 3 0 360 357 357 357 359 357 357 357 353 351 348 345 345 346 348 347 328 303 292 281 273 267 262 263 259 252 247 243 240
Wind_Speed_850mb
9 8 7 6 8 6 6 3 5 7 4 1 5 6 8 12 8 11 4 7 17 43 49 47 45 42 40 39 36 33 29 26 23 21 20 19 18 17 16 16 16 16 18 9 7 6 6 6 5
8 6 5 2 7 7 4 1 6 3 3 4 9 9 11 14 18 20 16 12 20 38 48 51 48 45 42 39 36 35 34 30 28 27 25 22 22 22 22 22 21 22 22 10 10 10 10 9 9
4 1 5 4 4 5 5 3 4 5 7 8 6 9 8 7 10 7 10 12 24 37 49 51 51 49 46 43 39 38 35 32 30 28 25 25 26 26 19 17 23 26 23 17 15 16 16 17 16
3 2 5 7 14 17 11 11 15 19 3 9 9 14 11 19 10 12 8 14 25 33 44 44 47 48 47 46 41 40 37 33 32 30 33 34 35 30 20 20 23 25 23 21 19 19 17 16 16
6 2 5 6 11 10 14 17 14 9 5 6 6 6 10 20 18 24 19 13 25 29 38 42 45 46 47 47 46 43 40 37 36 38 37 29 28 25 20 21 21 22 21 20 19 17 14 10 8
4 2 6 8 7 11 15 12 9 10 6 4 7 12 11 14 10 13 18 19 24 31 36 39 42 45 45 46 44 46 43 42 45 45 32 30 26 22 20 21 21 20 20 18 13 10 8 6 6
4 5 6 9 11 9 3 3 6 6 5 9 6 9 13 19 12 15 15 21 26 33 38 40 43 46 46 47 46 43 45 48 51 48 37 30 26 24 23 24 21 19 17 14 13 11 10 9 7
6 4 4 8 6 9 4 5 5 11 10 10 11 9 12 16 27 27 24 25 29 36 39 43 46 49 52 52 52 51 50 50 52 49 40 31 28 28 28 26 23 21 20 19 16 14 11 9 10
8 8 10 8 9 4 7 9 8 11 22 17 23 38 36 46 44 39 34 33 36 40 44 46 49 52 55 56 56 55 55 54 54 54 46 37 33 32 31 30 27 25 24 22 20 17 13 11 10
11 8 10 9 12 11 13 13 16 13 32 41 36 44 38 39 43 46 44 43 45 46 47 50 51 53 57 60 58 56 58 59 59 59 51 45 40 38 35 33 31 29 27 24 20 17 14 12 10
10 14 13 17 27 19 20 20 12 20 29 35 37 36 30 44 49 52 53 51 51 46 54 52 55 56 60 62 62 65 65 64 65 60 55 50 46 45 44 41 38 35 32 29 25 22 18 14 12
11 27 25 14 15 10 16 16 22 35 69 59 54 48 49 50 49 48 49 49 46 48 48 56 58 62 63 65 66 70 71 70 69 64 60 58 55 53 52 48 45 41 39 35 31 27 23 19 14
18 22 25 32 27 28 32 52 39 55 65 64 54 51 49 48 50 46 50 46 46 51 49 53 58 62 66 70 70 74 76 76 74 72 68 65 63 60 58 54 50 48 44 40 36 32 26 20 16
6 17 30 27 36 35 25 57 12 35 30 42 42 54 47 46 36 46 48 43 44 44 44 48 55 64 71 75 77 79 79 80 79 78 74 71 70 67 64 61 57 55 49 45 41 35 30 24 18
10 22 32 36 28 18 21 25 30 53 25 42 51 43 41 50 61 76 69 58 48 54 53 56 56 62 72 77 80 84 85 86 86 83 80 78 78 74 71 69 65 61 56 51 47 42 36 30 24
12 8 20 15 8 7 18 37 40 36 21 34 51 63 66 72 65 52 57 61 69 75 75 70 71 70 73 79 83 90 93 92 92 91 88 86 85 81 78 76 71 67 62 58 53 48 42 37 30
13 24 26 26 12 6 22 23 31 31 44 73 70 70 68 62 63 44 40 41 36 42 47 53 60 69 75 80 87 94 98 100 99 99 97 93 91 89 86 82 77 73 69 66 61 55 49 42 34
30 23 22 22 21 17 35 41 39 65 63 72 75 75 54 49 42 38 36 28 27 28 34 41 48 56 63 74 86 97 104 108 107 108 105 99 97 95 91 87 83 80 79 75 69 62 56 49 44
26 34 41 43 36 32 43 43 39 55 64 69 70 53 40 30 30 28 34 31 29 23 26 31 38 45 56 66 76 88 102 104 110 112 110 106 104 101 98 93 89 89 88 82 75 70 64 58 52
31 37 41 42 31 9 35 44 52 43 52 56 48 40 31 18 21 35 46 48 35 28 24 31 37 40 46 55 64 72 82 92 97 104 112 112 111 108 103 99 97 95 92 88 82 79 74 70 61
33 29 40 42 34 28 26 26 6 14 34 34 29 19 6 17 30 39 43 54 63 61 47 37 34 39 41 46 53 60 72 77 81 88 99 105 108 111 105 103 102 99 97 95 91 88 84 78 70
34 25 31 28 15 18 15 22 21 26 28 15 11 9 29 32 43 46 52 56 56 59 62 54 39 25 26 33 44 51 55 63 70 79 82 91 100 107 106 107 107 104 101 100 97 92 87 82 76
13 6 4 4 15 20 8 14 8 5 10 9 16 26 33 41 41 40 45 48 55 59 63 59 54 38 24 18 22 37 45 48 48 60 67 67 75 91 107 110 111 110 107 104 102 97 94 89 84
2 10 7 2 8 16 16 13 7 5 1 7 24 32 34 33 35 43 49 55 63 60 54 52 51 49 43 32 24 25 31 38 49 57 65 65 63 64 87 108 113 113 110 108 104 99 96 93 92
10 10 16 14 12 21 10 10 13 23 10 17 25 30 31 36 47 54 62 61 58 58 57 56 52 48 41 36 29 24 24 28 38 45 55 57 62 63 64 87 110 114 111 109 106 103 100 98 98
19 17 15 13 23 34 13 26 20 18 28 35 40 37 40 38 39 45 51 54 56 55 55 52 52 53 51 43 35 32 30 29 31 34 41 48 56 59 60 65 86 108 111 112 109 105 103 102 101
12 16 11 14 19 21 31 48 22 14 16 24 28 30 30 30 37 41 41 45 48 52 53 54 51 51 52 52 48 46 39 34 33 34 35 39 47 53 58 60 63 80 104 111 111 110 108 107 104
12 7 17 10 14 33 27 36 27 19 11 10 17 24 27 31 33 33 35 37 42 42 44 46 46 48 49 50 52 52 52 48 41 37 37 37 39 41 50 58 61 66 76 98 112 114 110 111 111
14 13 16 11 11 10 11 23 8 16 14 12 15 19 24 29 30 29 29 33 39 42 42 43 49 54 53 51 50 48 49 50 48 49 42 41 42 42 44 51 58 62 72 81 97 114 113 115 114
9 29 30 22 16 19 24 31 15 21 15 15 13 11 12 18 22 24 25 29 36 41 45 48 47 48 52 53 49 48 45 47 52 54 51 48 42 44 51 52 57 64 68 77 87 100 117 120 120
Wind_Direction_850mb
249 269 309 333 254 252 252 200 306 264 252 261 140 239 306 302 282 323 330 222 189 196 198 200 204 202 199 196 192 194 201 204 209 217 228 240 246 246 243 239 239 243 253 264 230 244 256 253 261
267 291 331 278 262 270 81 113 237 311 304 236 231 245 259 285 254 272 284 233 194 191 200 205 208 209 209 206 205 202 203 208 216 221 225 234 244 245 243 236 232 238 251 257 248 254 253 249 247
259 289 293 312 275 310 351 190 25 348 280 236 257 249 281 248 257 244 279 224 196 191 201 207 211 214 216 217 213 210 208 210 215 221 221 226 233 243 243 229 227 238 249 254 255 259 264 270 272
143 72 64 268 281 280 268 304 301 305 241 224 267 263 258 253 267 245 283 248 209 200 201 209 212 215 219 221 215 211 211 212 214 227 228 234 235 238 237 240 237 245 257 263 266 264 265 268 264
153 152 229 261 273 273 263 289 289 289 290 217 222 297 266 288 275 271 264 253 222 215 209 209 211 215 217 217 218 216 212 207 217 222 229 241 237 240 236 242 244 247 254 262 271 279 276 268 259
151 216 237 269 274 270 283 267 272 259 259 244 234 267 271 301 307 291 260 246 226 221 216 214 216 217 215 214 213 213 208 208 219 226 234 240 239 239 235 232 234 240 246 249 245 238 239 250 267
220 224 286 283 285 285 240 200 231 281 275 265 250 272 277 285 289 312 279 247 231 222 219 220 220 219 218 217 216 212 211 214 223 233 239 235 232 232 229 226 225 228 230 228 224 222 224 229 238
153 236 216 229 279 283 202 218 220 259 301 256 220 245 284 276 294 293 283 258 239 231 228 225 223 220 220 218 220 219 219 221 229 241 245 239 228 226 225 222 218 215 212 212 214 221 233 251 264
164 234 240 244 212 242 196 243 198 242 272 256 243 255 274 287 284 279 273 259 247 242 236 231 227 225 224 224 222 222 224 226 230 238 245 241 229 227 221 217 216 212 209 209 211 215 224 238 250
216 236 245 231 222 253 271 247 280 265 271 264 266 273 287 286 282 273 268 265 257 248 245 240 234 230 228 229 227 224 227 226 229 235 238 231 228 227 222 221 216 213 211 211 214 219 227 239 250
191 242 247 240 243 256 275 273 250 262 270 268 276 294 286 286 284 276 274 270 262 258 248 245 241 237 233 231 228 227 228 228 231 234 235 229 226 224 220 220 217 216 212 214 216 220 225 229 237
234 244 242 260 240 234 265 280 262 250 266 277 284 285 283 283 285 280 278 274 261 255 252 245 241 240 239 236 231 232 231 231 233 234 232 228 226 224 223 222 220 217 213 215 217 218 218 220 227
235 255 249 250 254 253 269 265 265 267 272 284 283 287 290 288 290 287 281 270 262 254 249 245 244 242 241 240 238 235 234 234 235 234 232 229 227 228 226 224 222 219 217 218 219 219 220 224 230
273 262 272 274 260 251 243 268 275 263 285 290 291 292 288 288 297 303 293 276 273 271 265 252 247 244 242 241 238 239 238 237 235 235 234 231 230 229 227 226 224 223 221 221 221 221 223 227 236
313 298 293 265 257 238 220 265 234 274 271 283 290 292 290 287 291 290 291 286 280 279 273 267 259 249 244 243 241 240 240 238 238 237 234 232 231 230 228 227 225 225 223 223 223 223 223 226 232
269 253 280 297 169 214 193 271 284 294 294 290 291 288 284 285 288 291 290 284 278 278 276 271 263 255 249 246 244 242 240 239 239 238 236 233 231 230 229 227 226 226 224 224 224 224 224 224 228
226 269 262 289 244 168 208 276 286 292 296 292 289 285 287 294 295 303 289 290 285 274 270 266 259 252 250 248 245 243 242 241 239 238 237 236 233 230 229 229 228 227 225 225 224 224 225 225 227
273 265 257 264 283 264 282 267 274 282 285 279 286 285 295 293 310 319 325 310 292 271 266 261 258 255 252 249 246 243 241 240 239 239 238 237 235 232 230 229 228 228 226 225 224 224 223 221 223
284 271 275 277 285 291 287 295 294 286 280 280 282 293 292 310 332 3 8 350 328 307 286 281 272 268 260 253 244 240 242 241 239 240 240 238 236 234 231 230 230 228 228 228 226 224 221 220 221
261 271 276 279 278 283 286 295 292 283 275 272 284 293 301 335 47 33 34 33 20 359 321 290 278 271 265 259 257 250 245 244 245 242 241 239 238 236 233 231 230 230 228 226 225 225 222 219 219
256 263 269 280 306 280 296 279 258 295 277 300 286 276 348 60 34 22 23 31 33 29 14 347 305 286 276 265 256 250 243 244 246 246 245 242 239 239 236 234 234 232 230 229 229 227 225 224 219
274 280 270 285 302 290 6 295 301 274 284 324 36 88 97 53 33 32 35 34 32 32 28 16 352 312 298 290 269 256 258 254 254 256 256 255 248 243 239 237 237 234 232 231 230 229 227 225 224
272 8 298 284 285 304 268 266 307 241 250 174 22 75 57 34 34 35 38 33 35 33 28 28 18 2 353 327 290 281 275 265 261 261 261 264 262 251 242 239 239 237 234 232 232 230 227 228 227
319 277 246 218 285 267 309 233 359 266 212 94 91 77 52 40 35 37 41 34 31 30 30 31 37 29 22 18 355 323 298 283 274 277 273 271 268 262 249 241 240 240 239 236 235 233 232 231 229
184 264 297 281 237 266 65 296 280 282 5 25 82 69 49 44 35 31 28 28 28 26 30 30 28 28 26 23 15 360 339 312 296 290 284 281 276 270 263 248 240 240 241 241 239 235 233 231 230
198 206 220 259 270 285 301 265 255 235 87 66 57 45 37 36 40 35 30 26 24 23 23 26 28 26 24 21 15 2 350 328 309 300 293 288 286 282 274 264 249 242 241 241 240 240 239 235 232
163 218 277 266 261 277 270 270 255 238 70 63 60 59 51 38 36 34 31 28 21 16 17 16 15 16 17 17 18 15 1 342 325 313 302 296 291 285 281 274 264 253 246 245 244 241 239 237 236
229 309 255 227 257 248 248 258 252 166 126 87 65 40 29 30 27 23 18 13 11 10 8 7 9 10 10 5 7 8 7 2 346 327 313 299 291 286 284 277 269 262 254 249 247 244 241 239 237
234 233 228 267 258 261 252 242 292 150 127 104 48 33 20 17 14 9 8 3 357 355 359 1 356 358 357 358 360 355 352 353 356 357 341 319 302 290 279 275 273 268 265 257 249 248 244 241 240
281 264 257 248 243 227 249 255 96 114 129 119 103 57 27 24 10 3 3 0 360 357 357 357 359 357 357 357 353 351 348 345 345 346 348 347 328 303 292 281 273 267 262 263 259 252 247 243 240